Regional Weather Roundup
Issued by NWS

Home | Current Version | Previous Version | Text Only | Print | Product List | Glossary Off
Versions: 1 2 3 4 5 6 7 8 9 10 11 12 13 14 15 16 17 18 19 20 21 22 23 24 25 26 27 28 29 30 31 32 33 34 35 36 37 38 39 40 41 42 43 44 45 46 47 48 49 50

435
ASUS43 KDMX 270206
RWRIA

WEATHER ROUNDUP FOR IOWA
NATIONAL WEATHER SERVICE DES MOINES IA
900 PM CDT SAT MAY 26 2018

NOTE: "FAIR" INDICATES FEW OR NO CLOUDS BELOW 12,000 FEET WITH NO
SIGNIFICANT WEATHER AND/OR OBSTRUCTIONS TO VISIBILITY.

* - THESE STATIONS ARE NOT NWS STATIONS...THUS NOT UNDER NWS
QUALITY CONTROL.  THEY ALSO DO NOT REPORT WEATHER SUCH
AS PRECIPITATION OR FOG.

IAZ001>003-012>014-020>022-031>034-043>046-270300-
   NORTHWEST IOWA

CITY           SKY/WX    TMP DP  RH WIND       PRES   REMARKS
CARROLL *      CLEAR     84  52  32 CALM      29.75R HX  82
CHEROKEE *     CLEAR     78  62  59 CALM      29.76R
DENISON *      CLEAR     82  61  47 E5        29.77R HX  83
LE MARS *      CLEAR     82  59  44 CALM      29.75R HX  82
ORANGE CITY *  CLEAR     90  50  25 N3        29.77R HX  87
SHELDON *      CLEAR     86  52  30 NW5       29.75S HX  84
SIOUX CITY     CLEAR     85  58  39 SE3       29.74R HX  84
SPENCER        CLEAR     82  58  43 CALM      29.76R HX  82
STORM LAKE *   CLEAR     88  46  23 NW5       29.77R HX  85
$$

IAZ055>058-069>071-079>083-090>094-270300-
   SOUTHWEST IOWA

CITY           SKY/WX    TMP DP  RH WIND       PRES   REMARKS
ATLANTIC *     CLEAR     84  57  39 CALM      29.76R HX  83
AUDUBON *      CLEAR     79  61  53 CALM      29.78  HX  80
CLARINDA *     CLEAR     82  68  61 CALM      29.77R HX  85
COUNCIL BLFS * CLEAR     86  61  42 CALM      29.75S HX  86
CRESTON *      CLEAR     84  68  58 SE5       29.79R HX  87
HARLAN  *      CLEAR     81  55  41 CALM      29.79S HX  80
LAMONI         CLEAR     85  68  56 S5        29.77R HX  88
RED OAK *      CLEAR     82  59  44 CALM      29.75R HX  82
SHENANDOAH *   CLEAR     88  57  35 NE5       29.74S HX  86
$$

IAZ047>049-059>061-072>074-084-270300-
   CENTRAL IOWA

CITY           SKY/WX    TMP DP  RH WIND       PRES   REMARKS
AMES           CLEAR     79  67  66 CALM      29.73R HX  81
ANKENY *       CLEAR     86  63  45 S7        29.74R HX  87
BOONE *        CLEAR     88  52  29 CALM      29.74R HX  85
CHARITON *     CLEAR     84  66  54 S5        29.76R HX  86
DES MOINES     PTCLDY    86  64  47 SE6       29.73R HX  87
GRINNELL*      CLEAR     79  66  64 SE3       29.77R HX  81
KNOXVILLE *    CLEAR     84  64  51 SE6       29.74R HX  86
MARSHALLTOWN   CLEAR     80  68  66 SE7       29.75R HX  83
NEWTON *       CLEAR     79  66  65 SE5       29.75R HX  81
PELLA *        CLEAR     80  67  64 SE5       29.76R HX  82
PERRY *        FAIR      82  44  25 W5        29.74R HX  80
$$

IAZ004>006-015-016-023>025-035-036-270300-
   NORTH CENTRAL IOWA

CITY           SKY/WX    TMP DP  RH WIND       PRES   REMARKS
ALGONA *       CLEAR     84  59  42 CALM      29.75R HX  84
CLARION *      CLEAR     84  54  34 CALM      29.75S HX  83
ESTHERVILLE    CLEAR     82  56  40 N5        29.75R HX  82
FORT DODGE *   CLEAR     80  58  46 E3        29.75R HX  80
MASON CITY     CLEAR     81  55  40 SW6       29.75R HX  81
FOREST CITY *  FAIR      77  59  53 CALM      29.75S
WEBSTER CITY * CLEAR     82  52  34 NE3       29.73R HX  81
IOWA FALLS *   FAIR      85  58  39 CALM      29.77R HX  85
$$

IAZ007>011-017>019-026>030-037>042-050>054-066-270300-
   NORTHEAST IOWA

CITY           SKY/WX    TMP DP  RH WIND       PRES   REMARKS
CEDAR RAPIDS   FAIR      80  70  71 S5        29.75R HX  83
CHARLES CITY * FAIR      82  64  54 SE6       29.75R HX  84
DECORAH *      FAIR      81  66  61 S7        29.75R HX  83
DUBUQUE        FAIR      78  65  63 S3        29.78R HX  80
MONTICELLO *   FAIR      79  70  73 SE5       29.76R HX  81
OELWEIN *      FAIR      81  66  61 S6        29.76S HX  83
WATERLOO       FAIR      81  68  64 S9        29.73R HX  84
$$

IAZ064-065-067-068-078-270300-
   EAST CENTRAL IOWA

CITY           SKY/WX    TMP DP  RH WIND       PRES   REMARKS
DAVENPORT        N/A     81  65  58 W5        29.78R HX  83
IOWA CITY      FAIR      81  69  67 CALM      29.77R HX  84
MT. PLEASANT * CLEAR     77  66  69 S5        29.77R
MUSCATINE *    FAIR      77  72  83 CALM      29.76R
QUAD CITIES    FAIR      75  70  84 SE7       29.76R
$$

IAZ062-063-075>077-085>089-095>099-270300-
   SOUTHEAST IOWA

CITY           SKY/WX    TMP DP  RH WIND       PRES   REMARKS
BURLINGTON     CLOUDY    76  67  73 SW6       29.76S
FAIRFIELD *    CLEAR     82  68  61 SE7       29.76R HX  85
FORT MADISON * CLOUDY    77  66  69 S5        29.78S
KEOKUK *       CLOUDY    77  66  69 SW5       29.76S
OSKALOOSA *    FAIR      81  69  66 SE7       29.77R HX  85
CENTERVILLE *  FAIR      81  70  69 CALM      29.79R HX  84
OTTUMWA        CLEAR     80  71  74 SE8       29.76R HX  84
WASHINGTON *   CLEAR     81  72  74 SE5       29.77R HX  84
$$

ABBREVIATIONS USED IN REMARKS
   TC - TEMPERATURES IN CELSIUS
  WCI - WIND CHILL INDEX
   HX - HEAT INDEX
  VSB - VISIBILITY
$$





USA.gov is the U.S. government's official web portal to all federal, state and local government web resources and services.